Location: Bidwell Hollow
(37.7387°N, 90.1707°W)
Time: 14:45:55
(UTC+00:00)

ACS3 Solar Sail - Pass Details

Date: 10 November 2025
Orbit: 888 x 1002 km, 97.3° (Epoch: 09 December)

Event Time Altitude Azimuth Distance (km) Brightness Sun altitude
Rises 09:32:19 0° 9° (N) 3,542 4.9 -36.4°
Reaches altitude 10° 09:34:43 10° 9° (N) 2,610 4.1 -36.0°
Enters shadow 09:34:51 11° 9° (N) 2,556 4.1 -35.9°
